RH
22 24 15 10 18 20 20 37 45 67 62 78 60 93 69 64 34 35 30 28 26 30 35 37 38 40 40 40 40 40 43 44 47 48 49 52 56 60 61 61 56 58 58
25 27 24 13 21 20 26 46 40 48 47 75 79 94 76 79 36 35 33 33 33 38 43 44 42 41 41 41 43 47 54 59 65 66 71 68 71 68 62 62 65 60 58
28 27 24 16 19 23 24 44 33 42 49 69 94 97 64 90 43 35 35 42 44 42 44 44 44 46 47 52 62 61 63 72 76 73 76 81 85 57 59 63 62 51 52
29 29 22 17 18 25 22 35 30 28 43 62 69 83 70 77 85 38 36 32 34 40 42 45 46 47 51 56 59 60 63 65 64 69 64 67 69 82 68 59 42 37 41
41 39 25 20 22 25 24 21 44 29 35 75 71 96 84 69 98 45 36 31 36 45 44 45 48 51 52 51 51 51 56 60 64 63 66 65 56 49 59 58 70 76 77
42 37 28 26 27 29 26 17 24 28 57 100 91 80 96 96 91 77 36 38 37 40 41 46 48 49 48 46 47 46 47 51 59 65 64 62 65 72 82 86 88 73 58
47 41 36 35 31 32 30 18 21 28 73 96 96 94 97 98 95 83 34 35 38 33 38 40 44 47 47 46 45 47 51 51 51 57 60 55 59 52 76 91 78 70 59
60 55 49 43 37 36 34 27 20 97 100 96 96 96 96 96 97 94 61 29 33 40 42 44 44 44 44 44 47 48 50 49 48 44 46 44 33 65 93 84 80 75 82
64 64 62 56 50 40 38 30 23 99 99 97 97 96 96 97 97 98 94 56 52 28 30 31 32 34 35 35 35 35 36 33 26 23 28 47 88 84 84 87 94 98 100
67 69 68 59 53 46 46 33 36 69 97 98 99 97 96 97 96 94 95 87 50 62 42 50 31 22 21 22 21 21 22 23 30 40 86 92 96 92 95 100 98 96 92
67 75 75 67 60 56 46 44 29 98 81 98 98 98 97 97 97 97 97 96 97 95 93 85 72 75 73 78 76 62 56 49 88 91 96 96 96 96 99 99 93 96 96
66 74 77 68 64 60 55 39 27 22 84 98 98 98 98 96 97 96 97 96 96 97 97 95 98 97 97 98 94 97 95 94 97 100 95 98 97 99 98 98 95 95 96
67 74 71 63 58 58 66 68 64 40 16 37 78 98 98 98 98 97 97 96 98 97 98 97 98 97 97 98 96 98 97 97 98 97 98 98 97 98 97 98 91 92 93
56 71 70 62 62 62 69 74 75 82 49 30 18 28 66 94 98 97 100 92 97 97 96 97 96 97 96 97 97 97 97 96 97 96 98 100 98 96 95 83 69 70 72
45 76 73 77 65 68 71 62 66 81 87 47 29 18 19 22 33 49 94 100 92 97 97 98 97 97 97 97 97 96 97 97 99 98 97 97 75 59 48 40 55 61 61
52 61 83 83 76 64 68 71 78 75 83 98 55 30 18 19 20 19 20 52 39 38 71 59 93 95 88 94 78 58 51 70 82 40 37 35 29 29 34 40 84 99 80
62 76 68 79 80 79 85 100 100 89 83 94 97 96 58 24 19 21 20 20 20 20 18 18 20 21 24 22 19 18 18 18 19 21 23 23 19 18 20 38 86 99 71
98 91 93 82 83 97 94 86 93 98 86 89 99 97 96 96 81 39 36 42 40 36 29 24 21 19 18 16 16 17 16 17 16 16 16 17 16 13 11 21 39 53 77
83 100 100 100 100 78 59 78 94 99 97 92 87 90 97 100 97 95 92 80 67 66 65 61 53 48 44 32 26 23 24 22 21 26 28 22 13 11 12 69 100 98 35
100 73 82 97 99 95 70 67 70 65 73 90 87 78 85 87 94 95 97 93 90 89 85 81 79 82 83 68 55 54 55 51 45 33 21 14 14 17 23 40 46 31 30
100 100 100 100 100 99 77 56 69 100 99 100 95 78 73 63 77 86 90 94 95 96 94 90 86 84 86 88 93 97 95 93 90 76 29 18 20 23 23 25 27 25 24
100 100 100 100 99 100 89 100 100 100 100 94 88 95 96 76 78 92 95 86 87 87 77 80 90 93 93 89 90 100 96 95 78 45 27 25 22 21 22 24 23 25 27
100 100 100 100 100 100 81 88 96 100 100 100 100 100 98 97 87 93 88 65 54 74 55 40 52 51 53 67 86 99 100 96 95 93 66 40 30 30 33 31 32 30 31
100 100 100 100 100 100 100 100 98 100 100 100 99 98 88 84 83 74 88 82 61 69 59 40 38 28 22 31 74 95 99 100 100 99 96 88 50 48 52 50 50 45 39
94 97 99 100 100 100 100 100 100 99 100 100 99 100 84 77 79 74 63 56 50 62 50 39 38 27 17 15 20 38 54 75 82 84 91 96 80 60 58 57 45 42 48
84 93 95 89 96 97 100 100 100 100 96 100 100 100 100 89 88 87 81 67 45 54 75 44 46 43 33 16 12 9 8 18 29 52 93 99 85 78 70 65 60 62 71
Wind_Speed
40 40 39 32 26 26 27 27 23 24 36 37 58 62 65 66 64 59 57 55 53 50 47 45 42 39 37 37 33 31 30 31 29 30 29 29 31 34 35 34 34 35 36
42 41 39 32 25 24 29 29 23 20 22 37 52 60 66 64 66 63 59 56 54 52 48 44 42 41 39 36 32 35 35 36 32 37 38 36 37 36 38 38 40 38 38
42 40 38 32 26 22 28 31 21 23 26 36 52 61 69 69 69 67 63 57 52 51 48 46 45 43 39 39 42 44 42 44 44 43 41 45 40 40 42 45 42 40 41
42 40 35 29 27 22 25 29 26 25 28 42 52 60 64 66 63 63 61 58 57 56 53 51 49 47 45 42 44 44 45 49 49 52 54 49 47 48 49 47 41 40 42
41 38 34 30 24 19 24 28 34 29 32 30 54 65 67 69 66 66 66 65 64 60 57 56 54 50 47 45 46 47 49 51 50 51 51 51 45 46 49 50 52 52 50
40 39 35 30 23 21 24 24 30 31 24 33 50 58 62 68 68 68 69 69 65 63 62 60 57 56 53 51 51 54 54 54 53 53 53 53 54 54 61 59 55 47 47
39 38 36 32 24 23 23 26 28 28 16 22 43 50 65 63 72 70 68 69 66 63 63 62 61 58 56 56 58 58 58 57 57 56 56 58 58 62 56 50 45 46 47
38 36 35 32 27 25 24 27 30 27 20 26 39 51 59 67 77 73 68 67 63 66 66 63 62 61 61 63 63 60 60 58 58 57 58 58 60 60 51 44 46 45 49
35 35 33 31 28 27 26 30 36 34 33 37 36 64 64 71 68 74 71 71 67 68 63 63 61 62 65 66 66 66 63 61 59 58 62 58 56 49 46 44 47 49 50
31 32 31 30 27 29 29 32 40 42 40 37 34 44 48 56 69 69 69 73 69 69 65 65 66 65 66 67 69 70 66 64 60 56 56 57 49 48 48 50 48 49 50
29 30 30 29 28 30 33 36 45 50 48 46 43 34 34 39 54 55 48 54 60 65 62 63 63 64 65 70 74 71 68 64 62 63 58 51 49 49 51 50 52 49 49
30 31 30 31 29 32 34 39 43 50 55 57 54 51 48 41 46 47 54 44 46 60 58 51 54 62 48 50 58 64 52 56 58 53 47 46 52 49 56 56 49 45 53
32 33 33 34 33 34 35 35 43 49 52 56 56 58 59 55 45 49 49 45 52 55 54 55 57 59 57 54 54 47 57 58 65 56 55 54 48 56 51 48 59 61 59
35 36 36 38 40 38 37 35 34 45 54 58 57 54 57 53 55 59 50 52 52 66 66 64 63 69 64 54 32 34 38 39 43 44 51 46 58 64 60 60 60 63 61
40 41 40 40 41 42 42 38 34 33 47 53 56 51 50 47 48 50 59 59 72 66 57 56 61 61 60 62 59 49 49 51 44 43 56 59 60 62 64 62 63 64 63
42 44 44 43 42 41 43 39 39 36 35 41 51 51 52 50 51 55 52 60 60 56 61 57 59 53 54 56 49 49 49 51 52 55 56 61 62 65 66 66 57 60 63
46 46 46 47 47 47 45 41 41 41 39 39 41 48 53 52 50 51 53 54 52 52 54 55 51 51 54 54 53 53 52 53 56 58 57 60 60 59 62 61 64 67 62
44 48 50 49 49 49 48 46 45 46 44 43 43 44 46 50 54 54 50 47 46 46 46 45 45 45 46 46 45 44 47 48 49 49 50 50 53 56 59 58 57 54 52
57 54 53 54 54 52 49 45 44 44 44 46 45 45 44 44 48 50 54 56 56 52 49 47 45 44 45 46 46 46 46 48 48 49 50 49 50 51 52 46 45 49 47
50 55 57 55 57 59 57 48 44 45 50 49 49 52 49 46 46 45 45 48 50 53 54 56 56 55 53 50 46 46 46 46 44 44 46 45 44 41 42 43 43 46 45
54 52 63 55 58 55 46 50 49 57 55 55 56 57 56 51 51 50 48 47 46 46 47 49 51 50 51 51 51 53 53 52 48 45 41 40 39 39 40 38 40 42 42
61 63 64 57 59 60 56 60 62 62 58 59 57 55 51 51 51 53 50 48 46 45 45 45 46 46 46 47 48 49 49 44 40 40 41 41 41 40 40 40 40 39 42
59 70 76 63 66 66 63 69 70 70 66 67 62 58 56 54 54 56 56 54 50 48 45 45 44 44 44 45 46 47 46 43 41 39 39 40 40 39 38 39 39 41 42
71 60 59 65 69 68 65 59 74 74 61 63 63 60 60 61 63 59 61 60 57 54 48 47 45 42 43 45 45 44 44 44 44 45 45 43 40 38 37 37 39 41 42
68 71 66 62 61 68 68 61 61 65 60 57 58 57 59 59 61 62 61 58 56 53 50 51 49 45 41 42 44 46 44 42 43 43 43 43 42 41 40 42 42 42 42
70 72 73 73 68 62 60 57 61 65 66 64 62 62 63 63 61 57 56 58 58 58 54 52 52 48 44 43 42 41 41 42 43 44 44 44 44 42 42 42 41 43 44
Wind_Direction
261 264 269 269 257 249 250 257 258 248 250 239 221 218 216 218 213 210 206 207 209 209 210 212 215 219 223 228 231 236 242 245 252 253 255 260 265 270 271 275 275 277 285
260 261 265 267 253 241 242 247 246 242 269 254 217 213 214 217 216 214 211 210 211 211 213 215 219 222 226 229 235 238 240 244 253 257 256 261 268 273 273 275 280 284 284
258 260 261 263 258 243 239 240 241 238 279 244 225 220 210 213 217 216 214 213 214 216 217 219 223 226 230 233 237 246 260 252 260 256 267 268 269 266 269 276 280 281 283
256 258 259 258 256 245 237 240 249 267 264 249 227 212 213 215 219 219 219 218 218 220 221 223 227 229 232 237 247 245 249 258 263 267 270 268 272 271 272 278 277 280 283
255 256 254 253 255 244 241 243 245 258 265 251 216 210 210 214 217 219 219 219 220 221 223 226 229 233 237 238 242 249 250 253 258 264 267 271 267 264 276 275 279 277 286
251 252 251 251 244 232 237 238 242 244 254 226 209 208 212 213 216 219 220 221 223 223 225 229 232 236 239 243 246 249 252 254 257 261 266 269 268 270 278 282 283 281 283
247 248 249 247 236 225 233 231 232 232 229 219 211 212 213 216 217 219 220 224 226 228 231 233 236 240 243 246 249 251 252 256 259 260 262 267 271 276 283 282 278 282 283
243 245 246 244 234 219 224 230 220 224 225 217 208 204 208 219 221 220 218 225 225 229 232 235 238 241 243 246 248 251 253 256 259 263 265 265 276 280 279 277 280 280 281
239 241 241 240 237 220 215 223 213 216 202 202 215 215 216 220 227 219 221 223 227 230 234 238 242 245 248 249 251 252 254 254 259 261 263 268 275 273 273 279 281 282 286
233 234 233 231 223 217 214 217 218 214 210 202 224 221 227 225 227 222 218 221 225 230 234 239 242 245 248 252 254 254 252 254 256 257 257 265 267 268 274 276 276 277 279
235 231 231 230 226 218 216 214 217 220 224 211 207 211 217 217 207 217 223 230 226 229 234 239 243 248 251 255 254 253 253 249 252 254 259 259 264 270 274 267 269 277 281
232 232 229 224 225 217 215 218 220 225 226 225 231 225 227 212 206 231 230 222 207 225 224 242 247 244 245 252 260 253 258 258 258 262 257 263 266 269 267 259 265 270 288
228 228 229 223 220 215 224 224 221 224 231 232 237 230 231 233 208 218 223 230 237 233 232 232 230 241 258 248 247 251 249 255 253 263 256 259 266 266 260 271 277 284 286
227 226 225 224 224 225 229 236 237 224 223 232 237 238 242 242 230 232 228 237 241 242 231 234 232 241 240 239 236 239 247 245 244 247 251 258 266 274 278 283 284 282 284
225 223 224 228 227 229 232 239 237 230 227 227 235 246 248 250 248 247 240 236 244 238 244 233 233 230 234 243 244 234 245 246 262 268 265 266 274 278 281 280 281 282 281
227 225 225 225 227 226 227 235 239 240 234 233 231 234 244 250 250 248 249 251 253 252 255 263 262 265 263 265 268 271 274 275 274 272 273 275 274 276 277 275 271 270 282
230 226 226 226 226 228 230 230 236 239 242 241 237 237 235 239 246 250 252 253 259 263 262 264 267 265 265 266 268 268 270 271 269 269 271 271 274 274 274 271 264 272 279
232 231 228 229 229 227 232 237 237 237 238 241 241 238 239 240 241 245 251 255 257 259 261 263 264 266 267 266 266 267 267 266 267 268 269 270 272 273 271 270 272 274 277
223 230 227 229 228 237 242 235 233 234 236 238 241 243 242 242 242 242 245 248 253 258 261 263 263 263 265 266 266 265 266 269 270 271 272 273 271 269 268 266 272 276 275
226 227 226 230 238 239 238 235 234 240 239 237 240 243 244 246 245 245 247 248 249 251 253 255 258 262 264 264 265 265 264 264 269 269 270 268 268 266 266 265 266 271 274
219 226 226 220 235 233 230 233 236 243 239 232 239 243 244 246 245 245 248 251 252 253 254 256 256 258 260 261 263 264 265 265 263 264 266 267 265 267 269 269 269 271 273
214 219 214 218 229 231 231 226 228 225 229 236 238 237 236 240 240 245 247 250 253 256 259 258 258 258 259 260 261 262 263 262 260 263 262 263 266 268 270 270 270 269 269
223 220 222 225 229 229 234 231 233 231 239 237 241 237 237 241 243 245 248 253 255 255 260 257 256 257 258 260 259 258 257 256 254 260 265 266 267 267 268 270 270 270 268
234 229 222 225 229 229 231 231 237 240 247 247 248 250 250 249 251 251 250 254 257 255 257 256 253 252 255 258 258 256 257 259 260 261 262 261 264 264 265 269 270 270 270
248 245 243 229 224 228 228 229 233 237 241 241 244 244 248 249 249 249 251 252 255 256 258 255 254 252 253 254 256 257 257 259 260 261 261 262 260 261 263 264 268 270 267
252 250 251 253 240 236 234 229 231 234 239 244 246 247 248 247 248 250 254 256 260 259 257 255 250 252 254 253 254 256 258 256 256 257 258 258 259 260 261 263 265 267 266